DELTA 1 DEB, 10749

Orbit data source: Space-Track

DELTA 1 DEB, 10749 is space debris in SSO originally from a launch on Thu, 29 Jul 1976 UTC launched from the Air Force Western Test Range (AFWTR). Debris objects in space refer to the collection of defunct objects orbiting the Earth. Examples of debris include non-operational satellites, rocket bodies, and fragments generated from explosions, collisions, or faulty payload assembly.

Loading next visibility...
Identifier
10749, 1976-077AW
Orbit
SSO
Country
Flag of USUS
Related business
Manufacturer
Unknown
Mission
Spacecraft
Bus & Motor
Unknown
Mass
Unknown
Launch date (UTC)
1976-07-29 (50 years ago)
Launch vehicle
Unknown
Launch site
Air Force Western Test Range (AFWTR)
Object type
Payload
Rocket body
Debris
Shape & HBR
Unknown shape, 0.2 m
Radar Cross Section
Medium (>0.1 m² and <1 m²)

Expand to show TLE details & history
Last TLE update: 10 hours ago

TLE from 10 hours ago
0 DELTA 1 DEB
1 10749U 76077AW  26062.83350937 -.00000030  00000-0  12867-3 0  9993
2 10749 102.3429 153.7678 0091129 191.5824 291.1484 12.23535595215707
Epoch: 2026-03-03T20:00Z
TLE epoch observation values (Epoch: 2026-03-03T20:00:15.209Z)
Latitude
56.26117°
Longitude
-108.87433°
Altitude
1,560.751 km
Speed
7.104 km/s
True Right ascension
23h 31m 11s
True Declination
56° 07' 06"
Sunlit
Object was in daylight at epoch
Visualization orbit readout
Latitude
Unknown
Longitude
Unknown
Altitude
Unknown
Speed
Unknown
Apparent Right ascension
Unknown
Apparent Declination
Unknown
Sunlit
N/A
Visualization observer readout
Local Sidereal Time
10:05:36
Azimuth
Unknown
Elevation
Unknown
Doppler factor
Unknown
Orbital elements
Apogee altitude
1,647.27 km
Perigee altitude
1,502.321 km
Semi-major axis
7,952.933 km
Eccentricity
0.00911
Inclination
102.3429°
RAAN
153.7678°
Arg. of periapsis
191.5824°
True anomaly
290.1705°
Mean anomaly
291.1484°
Eccentric anomaly
290.65985°
Mean motion
3.06022 °/min
Orbital period
117.64 mins
BSTAR
0.00012867
Loading maneuver chart data...
Computing Atmospheric mass density...
Loading historical data...
Loading historical data...
Loading historical data...
Loading historical data...
Loading historical data...
Loading historical data...
Loading historical data...

Documentation

Showing up to 5 results
|